Home > Weather > Bethlehem > Past weeks

Flag for Palestinian Territories Past Weather in Bethlehem, West Bank, Palestinian Territories — Yesterday and Last 2 Weeks

Now
79 °F

Passing clouds.


Feels Like: 81 °F
Forecast: 72 / 85 °F
Wind: 5 mph from Southeast

Location: Ben Gurion International Airport

Current Time: Aug 26, 2016 at 8:14:01 AM

Latest Report: Aug 26, 2016 at 7:20 AM


Visibility: N/A

Pressure: 29.86 "Hg (27.40 "Hg at 753m altitude)

Humidity: 74%

Dew Point: 70 °F

Location of BethlehemLocation

Past Weather in Bethlehem — Graph

°F

Bethlehem Temperature Yesterday

Maximum temperature yesterday: 88 °F (at 10:50 AM)
Minimum temperature yesterday: 79 °F (at 2:20 AM)
Average temperature yesterday: 83 °F

High & Low Weather Summary for the Past Weeks

 TemperatureHumidityPressure
High91 °F (Aug 14, 12:50 PM)84% (Aug 15, 3:50 AM)29.86 "Hg (Aug 15, 3:50 AM)
Low75 °F (Aug 13, 4:50 AM)46% (Aug 11, 1:20 PM)29.71 "Hg (Aug 17, 3:50 PM)
Average83 °F65%29.80 "Hg
* Reported Aug 11 6:20 AM — Aug 26 6:50 AM, Bethlehem, Weather by CustomWeather, © 2016

Note: Actual official high and low records may vary slightly from our data, if they occured in-between our weather recording intervals... More about our weather records

Advertising

Bethlehem Weather History for the Previous 24 Hours

Scroll right to see more
 ConditionsComfort  
Time TempWeatherWind HumidityBarometerVisibility
6:50 AM
Fri, Aug 26
77 °FPassing clouds.5 mph79%29.86 "HgN/A
6:20 AM79 °FPassing clouds.6 mph74%29.83 "HgN/A
5:50 AM77 °FPassing clouds.5 mph79%29.83 "HgN/A
5:20 AM79 °FPassing clouds.3 mph74%29.83 "HgN/A
4:50 AM77 °FPassing clouds.2 mph79%29.83 "HgN/A
4:20 AM77 °FPassing clouds.3 mph79%29.80 "HgN/A
3:50 AM79 °FPassing clouds.3 mph74%29.80 "HgN/A
3:20 AM79 °FPassing clouds.5 mph74%29.80 "HgN/A
2:50 AM79 °FPassing clouds.3 mph74%29.80 "HgN/A
2:20 AM79 °FPassing clouds.5 mph74%29.80 "HgN/A
1:50 AM81 °FPassing clouds.6 mph70%29.80 "HgN/A
1:20 AM81 °FPassing clouds.1 mph74%29.80 "HgN/A
12:50 AM79 °FPassing clouds.1 mph74%29.80 "HgN/A
12:20 AM79 °FClear.2 mph74%29.80 "Hg10 mi
11:50 PM
Thu, Aug 25
81 °FClear.2 mph70%29.80 "Hg10 mi
11:20 PM81 °FClear.3 mph70%29.80 "Hg10 mi
10:50 PM81 °FClear.3 mph70%29.80 "Hg10 mi
10:20 PM82 °FPassing clouds.2 mph70%29.83 "HgN/A
9:50 PM82 °FClear.3 mph70%29.83 "Hg10 mi
9:20 PM82 °FClear.3 mph70%29.83 "Hg10 mi
8:50 PM82 °FPassing clouds.5 mph70%29.83 "HgN/A
8:20 PM82 °FPassing clouds.7 mph70%29.80 "HgN/A
7:50 PM82 °FSunny.8 mph70%29.80 "Hg10 mi
7:20 PM84 °FSunny.8 mph66%29.77 "Hg10 mi
6:50 PM84 °FSunny.12 mph66%29.77 "Hg10 mi
6:20 PM84 °FSunny.10 mph62%29.77 "Hg10 mi
5:50 PM86 °FSunny.10 mph59%29.77 "Hg10 mi
5:20 PM86 °FPassing clouds.10 mph59%29.77 "HgN/A
4:50 PM86 °FPassing clouds.12 mph59%29.77 "HgN/A
4:20 PM88 °FPassing clouds.12 mph55%29.77 "HgN/A
3:50 PM88 °FPassing clouds.13 mph55%29.77 "HgN/A
3:20 PM88 °FScattered clouds.12 mph59%29.77 "HgN/A
2:50 PM88 °FScattered clouds.12 mph59%29.77 "HgN/A
2:20 PM88 °FScattered clouds.13 mph59%29.77 "HgN/A
1:50 PM88 °FScattered clouds.14 mph59%29.77 "HgN/A
1:20 PM88 °FScattered clouds.12 mph59%29.77 "HgN/A
12:50 PM88 °FScattered clouds.10 mph59%29.77 "HgN/A
12:20 PM88 °FScattered clouds.13 mph59%29.77 "HgN/A
11:50 AM88 °FScattered clouds.9 mph59%29.77 "HgN/A
11:20 AM88 °FScattered clouds.7 mph59%29.77 "HgN/A
10:50 AM88 °FScattered clouds.5 mph59%29.77 "HgN/A
10:20 AM86 °FScattered clouds.6 mph59%29.77 "HgN/A
9:50 AM86 °FScattered clouds.5 mph59%29.77 "HgN/A
9:20 AM84 °FScattered clouds.2 mph66%29.77 "HgN/A
8:50 AM84 °FPassing clouds.2 mph66%29.77 "HgN/A
8:20 AM82 °FPassing clouds.5 mph70%29.77 "HgN/A
Weather by CustomWeather, © 2016

See weather overviewHow to use our weather pages